www.pogodaiklimat.ru

Погода и климат >> Архив погоды >> Китай >> Mandal


ПОГОДА в Mandal

  • Прогноз погоды в Mandal
  • Монитор погоды в Mandal
  • Климат города

АРХИВ ПОГОДЫ в Mandal

Время (UTC), дата Ветер
(напр.,м/с)
 
Видим.   Явления Облачность Т
(С)
Тd
(С)
f
(%)
Тe
(С)
Тes
(С)
Комфортность P
(гПа)
Po
(гПа)
Тmin
(С)
Tmax
(С)
R
(мм)
R24
(мм)
S
(см)
18 12.07 В 3 30 км н/о +20.9 +6.1 38 +22 +22 комфорт 1001.3 1045.3 +33.3
21 12.07 В 2 30 км ?/? +18.5 +5.0 41 +19 +19 1002.0 1002.0
00 13.07 В 5 30 км ясно +22.6 +2.7 27 +22 +25 комфорт 1001.8 871.3
03 13.07 В 3 30 км 1/1
[]
+26.7 +6.2 27 +26 +39 жарко 1001.4 1001.0
06 13.07 В 5 30 км 8/8 600 м
[]
+29.4 +8.5 27 +29 +31 жарко 999.2 869.5 +18.5
09 13.07 Ю 4 30 км 10/10 600 м
[]
+26.1 +8.6 33 +26 +26 жарко 1001.0 825.8
12 13.07 ЮЗ 5 30 км 8/8 1000 м
[]
+22.2 +11.0 49 +24 +24 комфорт 1001.0 869.9
15 13.07 Ю 2 30 км ?/? +19.8 +10.8 56 +22 +22 комфорт 1001.0 1001.0
18 13.07 З 2 30 км н/о +18.4 +11.2 63 +19 +19 1000.7 1044.7 +29.8
21 13.07 З 1 30 км ?/? +16.6 +10.9 69 +17 +17 1001.2 1001.0
00 14.07 СЗ 1 30 км ясно +22.0 +10.8 49 +24 +30 комфорт 1001.7 870.4
03 14.07 ЮЗ 2 30 км ясно +29.7 +9.8 29 +30 +46 жарко 1000.3 826.5
06 14.07 Ю 2 30 км 1/1 600 м
[]
+33.5 -1.0 11 +30 +46 жарко 998.6 869.3 +16.4
09 14.07 Ю 3 30 км 9/9 600 м
[]
+33.3 -1.1 11 +30 +30 жарко 998.2 998.0
12 14.07 Ю 4 30 км 9/9
[]
+30.5 -1.0 13 +27 +27 жарко 998.0 1041.0
15 14.07 Ю 4 30 км н/о +27.1 +4.8 24 +26 +26 жарко 997.7 998.0
18 14.07 Ю 1 30 км ?/? +24.1 +7.3 34 +24 +24 комфорт 997.1 869.1 +34.4
21 14.07 Ю 1 30 км н/о +24.0 +12.3 48 +26 +26 жарко 996.1 996.0
00 15.07 ЮЗ 7 16 км 9/9 600 м
[]
+26.5 +16.7 55 +30 +30 душно 996.1 868.1
03 15.07 З 8 23 км 9/9 600 м
[]
+29.4 +16.2 45 +33 +33 душно 995.1 995.0
06 15.07 СЗ 7 22 км {ливн. осадки} 9/9 600 м
[]
+26.1 +15.2 51 +29 +29 жарко 996.7 867.3 +23.6 5
09 15.07 З 4 21 км 10/10 600 м
[]
+26.9 +13.6 44 +29 +29 жарко 996.8 997.0
12 15.07 З 1 27 км 9/9 600 м
[]
+25.5 +14.3 50 +28 +28 жарко 996.9 867.8
15 15.07 С 1 25 км ?/? +22.9 +16.7 68 +28 +28 душно 998.2 998.0
18 15.07 З 3 21 км ?/? +21.9 +16.0 69 +26 +26 душно 999.8 869.5 +30.1
21 15.07 З 1 30 км н/о +19.4 +14.9 75 +22 +22 комфорт 999.9 826.8
00 16.07 ЮЗ 3 30 км 3/3
[]
+22.0 +14.9 64 +25 +28 комфорт 1000.6 870.1
03 16.07 З 2 30 км 1/1 600 м
[]
+29.8 +8.8 27 +29 +44 жарко 999.0 999.0
06 16.07 ЮЗ 3 30 км 3/3 600 м
[]
+32.6 +4.4 17 +30 +40 жарко 997.1 1040.5 +19.3
09 16.07 Ю 4 30 км 1/1 600 м
[]
+32.5 +6.7 20 +31 +35 жарко 996.1 996.0
12 16.07 Ю 4 18 км ясно +29.8 +10.4 30 +30 +30 жарко 996.5 867.4
15 16.07 Ю 1 8000 м н/о +25.4 +14.2 50 +28 +28 жарко 996.7 824.9
18 16.07 ЮЗ 1 17 км ?/? +22.7 +15.8 65 +27 +27 душно 996.5 868.1 +33.7
21 16.07 ЮЗ 2 16 км ?/? +20.9 +16.1 74 +25 +25 комфорт 995.8 996.0
00 17.07 З 2 24 км ясно +22.9 +15.2 62 +27 +32 душно 996.5 867.6
03 17.07 Ю 3 13 км ясно +29.5 +12.4 35 +31 +44 жарко 995.8 824.4
06 17.07 ЮВ 1 25 км ясно +32.3 +12.0 29 +33 +53 опасность
солнечного
удара
994.6 866.4 +19.7
09 17.07 ЮЗ 3 29 км 1/1 600 м
[]
+34.0 +10.0 23 +33 +38 жарко 993.2 993.0
12 17.07 В 2 15 км 3/3
[]
+26.7 +12.0 40 +28 +28 жарко 996.2 866.7
15 17.07 Ю 2 20 км н/о +24.4 +12.4 47 +26 +26 жарко 996.7 824.4
18 17.07 СЗ 1 30 км ?/? +23.1 +13.9 56 +27 +27 душно 995.9 867.6 +34.2
21 17.07 З 3 30 км ?/? +23.6 +16.6 65 +27 +27 жарко 996.5 997.0
00 18.07 ЮВ 1 30 км в посл. час ливневой дождь 3/3 600 м
[]
+20.8 +16.2 75 +25 +29 комфорт 999.9 869.5 0.7
03 18.07 Ю 7 28 км ясно +18.0 +17.0 94 +17 +17 997.4 997.0
06 18.07 СВ 13 1200 м дымка 10/10 600 м
[]
+18.0 +13.9 77 +17 +17 1002.9 870.8 +18.0
09 18.07 В 10
{22}
30 км {ливн. осадки} 9/9 600 м
[]
+23.5 +14.2 56 +26 +26 жарко 1000.0 1000.0
12 18.07 В 2 30 км {ливн. осадки} 9/9 600 м
[]
+23.4 +13.9 55 +27 +27 душно 1000.9 869.7 2
15 18.07 В 6 30 км ?/? +22.4 +14.3 60 +26 +26 жарко 999.8 826.2
18 18.07 В 5 30 км н/о +21.0 +14.4 66 +24 +24 комфорт 1001.9 869.5 +32.7
21 18.07 В 5 30 км ?/? +21.9 +13.5 59 +25 +25 комфорт 999.4 999.0
00 19.07 С 3 3800 м ливневой дождь 10/10 600 м
[]
+17.7 +16.2 91 +18 +18 1002.5 870.5 22
03 19.07 В 4 13 км слабый ливневой дождь 10/10 600 м
[]
+18.5 +16.7 89 +19 +19 999.6 1000.0
06 19.07 Ю 2 30 км {ливн. осадки} 10/10 600 м
[]
+20.0 +17.2 84 +23 +23 комфорт 999.3 867.7 +16.8 9
09 19.07 ЮЗ 2 30 км 9/9 600 м
[]
+22.9 +17.1 70 +28 +28 душно 997.4 997.0
12 19.07 З 1 30 км 5/5 1000 м
[]
+23.1 +16.6 67 +28 +28 душно 998.6 867.0

 

Местоположение метеостанции Mandal (Китай): широта 42.53 долгота 110.13 высота над уровнем моря 1223 м.

В архиве по умолчанию представлена погода в Mandal за последнюю неделю. Архивные данные за месяц целиком и за предыдущие месяцы, начиная с января 2011 года, Вы можете получить, выбрав интересующий диапазон дат из раскрывающегося списка и нажав кнопку "Ввод!".


*Определитесь, кто Вы:
робот инопланетянин человек

Внимание! Время в таблицах - всемирное. Для получения местного времени необходимо прибавить поправку, которая в Mandal равна 8 ч.

Смотрите также архив погоды в соседних городах и на ближайших метеорологических станциях:

Погода в Bailing-Miao Zhen (Китай) (96 км)
Погода в Hatanbulag (Монголия) (104 км)
Погода в Hai Liu Zhen (Китай) (171 км)
Погода в Zamyn-Uud (Монголия) (196 км)
Погода в Erenhot (Китай) (196 км)
Погода в Zhurihe Zhen (Китай) (228 км)
Погода в Hohhot (Китай) (230 км)
Погода в Hanbogd (Монголия) (253 км)
Погода в Sainshand (Монголия) (264 км)
Погода в Jining (Китай) (295 км)

Пояснения к столбцам:

Ветер - указаны скорость ветра в м/с - средняя за 10 мин, порывы в срок и между сроками (в фигурных скобках) и направление, откуда дует ветер: С - северный, СВ - северо-восточный, В - восточный, ЮВ - юго-восточный, Ю - южный, ЮЗ - юго-западный, З - западный, СЗ - северо-западный.
Видимость - горизонтальная дальность видимости в метрах или километрах. При видимости от 1 до 10 км при отсутствии осадков обычно наблюдается дымка, при ухудшении видимости до 1 км и менее - туман. В сухую погоду видимость может ухудшаться дымом, пылью или мглою.
Явления - указаны атмосферные явления, наблюдавшиеся в срок или в последний час перед сроком; фигурными скобками обозначены явления, наблюдавшиеся между сроками (за 1-3 часа до срока); квадратными скобками обозначены град или гололедные отложения с указанием их диаметра в мм.
Облачность - указаны через наклонную черту общая и нижняя облачность в баллах и высота нижней границы облаков в метрах; квадратными скобками обозначены формы облаков: Ci - перистые, Cs - перисто-слоистые, Cc - перисто-кучевые, Ac - высококучевые, As - высокослоистые, Sc - слоисто-кучевые, Ns - слоисто-дождевые, Cu - кучевые, Cb - кучево-дождевые. Подробнее классификацию облаков см. в Атласе облаков (PDF).
T - Температура воздуха - температура, измеренная на высоте 2 м над землей.
Td - Температура точки росы - температура, при понижении до которой содержащийся в воздухе водяной пар достигнет насыщения.
f - Относительная влажность воздуха - влажноcть воздуха, измеренная на высоте 2 м над землей.
Te - Эффективная температура - температура, которую ощущает одетый по сезону человек в тени. Характеристика душности погоды. При расчете учитывается влияние влажности воздуха и скорости ветра на теплоощущения человека.
Tes - Эффективная температура на солнце - температура, которую ощущает человек, с поправкой на солнечный нагрев. Характеристика знойности погоды. Зависит от высоты солнца над горизонтом, облачности и скорости ветра. Ночью, в пасмурную погоду, а также при ветре 12 м/с и более поправка равна нулю.
P - Атмосферное давление - приведенное к уровню моря атмосферное давление.
Po - Атмосферное давление - измеренное на уровне метеостанции атмосферное давление.
Tmin - Минимальная температура - минимум температуры воздуха на высоте 2 м над землей.
Tmax - Максимальная температура - максимум температуры воздуха на высоте 2 м над землей.
R - Количество осадков - Количество выпавших осадков за период времени, мм. При наведении курсора мыши на число - период времени, за который выпало указанное количество осадков.
R24 - Количество осадков - Количество выпавших осадков за 24 часа, мм.
S - Снежный покров - Высота снежного покрова, см. При наведении курсора мыши на число - состояние снежного покрова и степень покрытия местности в баллах.